This demonstration page uses our WeatherBlox Daily Observations layout. Learn more.

Hourly Observations for January 26, 2020

Temp ( °F °C ) Dew Point ( °F °C ) Humidity (%) Winds ( mph kmh ) Pressure ( in mb ) Visibility ( mi km ) Precip ( " mm )
12:15 am 00:15 Cloudy 34 1.1 32 0 92 92 WNW 3 6 30.06 1018 10 16.0934 0 0
12:35 am 00:35 Mostly Cloudy 33 0.6 32 -0.1 95 95 WNW 5 7 30.07 1018 10 16.0934 0 0
12:55 am 00:55 Cloudy 33 0.8 32 0 94 94 WNW 6 9 30.08 1019 10 16.0934 0 0
1:15 am 01:15 Cloudy 33 0.7 32 -0.1 94 94 WNW 6 9 30.07 1018 10 16.0934 0 0
1:35 am 01:35 Mostly Cloudy 34 1.3 32 0 91 91 NW 7 11 30.06 1018 10 16.0934 0 0
1:55 am 01:55 Cloudy 35 1.8 32 0.1 89 89 WNW 7 11 30.07 1018 10 16.0934 0 0
2:15 am 02:15 Cloudy 37 2.8 33 0.6 86 86 W 7 11 30.06 1018 10 16.0934 0 0
2:35 am 02:35 Cloudy 37 3 33 0.6 84 84 W 7 11 30.06 1018 10 16.0934 0 0
2:55 am 02:55 Cloudy 38 3.5 33 0.6 82 82 W 7 11 30.06 1018 10 16.0934 0 0
3:15 am 03:15 Cloudy 38 3.5 33 0.4 80 80 WNW 7 11 30.06 1018 10 16.0934 0 0
3:35 am 03:35 Cloudy 36 2.4 32 0.1 85 85 NW 6 9 30.07 1018 10 16.0934 0 0
3:55 am 03:55 Mostly Cloudy 37 2.5 33 0.3 86 86 NNW 7 11 30.06 1018 10 16.0934 0 0
4:15 am 04:15 Partly Cloudy 35 1.7 32 0.1 89 89 WNW 5 7 30.06 1018 10 16.0934 0 0
4:35 am 04:35 Mostly Cloudy 35 1.8 32 0 88 88 NW 7 11 30.07 1018 10 16.0934 0 0
4:55 am 04:55 Mostly Cloudy 36 2 32 0.1 87 87 W 7 11 30.07 1018 10 16.0934 0 0
5:15 am 05:15 Cloudy 36 2.1 32 0.1 87 87 WNW 6 9 30.06 1018 10 16.0934 0 0
5:35 am 05:35 Cloudy 35 1.8 32 0.1 89 89 NW 6 9 30.07 1018 10 16.0934 0 0
5:55 am 05:55 Cloudy 36 2 33 0.3 89 89 WNW 5 7 30.08 1018 10 16.0934 0 0
6:15 am 06:15 Cloudy 36 2 32 0.2 88 88 WNW 7 11 30.08 1018 10 16.0934 0 0
6:35 am 06:35 Cloudy with Light Drizzle 36 2 33 0.3 89 89 NW 6 9 30.08 1018 10 16.0934 0 0
6:55 am 06:55 Cloudy 36 2.1 32 0.2 87 87 WNW 6 9 30.07 1018 10 16.0934 0 0
7:15 am 07:15 Mostly Cloudy 36 2 32 0 87 87 WNW 5 7 30.08 1018 10 16.0934 0 0
7:35 am 07:35 Partly Cloudy 35 1.6 32 0 89 89 WNW 3 6 30.08 1019 10 16.0934 0 0
7:55 am 07:55 Sunny 34 1.3 32 0 91 91 W 6 9 30.08 1019 10 16.0934 0 0
8:15 am 08:15 Sunny 35 1.5 32 -0.1 89 89 W 6 9 30.08 1019 10 16.0934 0 0
8:35 am 08:35 Sunny 34 1.3 31 -0.4 89 89 W 7 11 30.08 1019 10 16.0934 0 0
8:55 am 08:55 Partly Cloudy 37 2.5 32 -0.1 83 83 WNW 3 6 30.08 1019 10 16.0934 0 0
9:15 am 09:15 Mostly Cloudy 35 1.8 32 0 88 88 NNW 5 7 30.1 1019 10 16.0934 0 0
9:35 am 09:35 Partly Cloudy 35 1.9 33 0.3 89 89 Calm 30.09 1019 10 16.0934 0 0
9:55 am 09:55 Sunny 38 3.2 33 0.6 83 83 Calm 30.08 1019 10 16.0934 0 0
10:15 am 10:15 Sunny 39 4.1 34 1 80 80 Calm 30.08 1018 10 16.0934 0 0
10:35 am 10:35 Sunny 42 5.3 35 1.4 76 76 WNW 3 6 30.06 1018 10 16.0934 0 0
10:55 am 10:55 Sunny 44 6.5 35 1.7 72 72 Calm 30.04 1017 10 16.0934 0 0
11:15 am 11:15 Sunny 46 7.7 36 2.2 68 68 W 3 6 30.03 1017 10 16.0934 0 0
11:35 am 11:35 Sunny 48 9 37 2.7 65 65 W 5 7 30.01 1016 10 16.0934 0 0
11:55 am 11:55 Sunny 49 9.5 37 3 64 64 SW 7 11 30 1016 10 16.0934 0 0
12:15 pm 12:15 Sunny 50 10.2 38 3.6 64 64 WSW 8 13 29.99 1016 10 16.0934 0 0
12:35 pm 12:35 Sunny 50 10.1 38 3.3 63 63 WSW 9 15 29.99 1016 10 16.0934 0 0
12:55 pm 12:55 Sunny 50 10.2 38 3.6 64 64 SW 9 15 29.98 1015 10 16.0934 0 0
1:15 pm 13:15 Sunny 50 10 39 3.7 65 65 WSW 8 13 29.97 1015 10 16.0934 0 0
1:35 pm 13:35 Mostly Cloudy 51 10.5 39 4.1 65 65 W 7 11 29.96 1015 10 16.0934 0 0
1:55 pm 13:55 Cloudy 51 10.5 39 3.9 64 64 WSW 6 9 29.95 1014 10 16.0934 0 0
2:15 pm 14:15 Cloudy 51 10.7 39 4.1 64 64 W 9 15 29.94 1014 10 16.0934 0 0
2:35 pm 14:35 Cloudy 52 11 39 4.1 63 63 W 8 13 29.93 1014 10 16.0934 0 0
2:55 pm 14:55 Cloudy 52 11.3 39 4 61 61 W 7 11 29.93 1014 10 16.0934 0 0
3:15 pm 15:15 Cloudy 52 11.3 38 3.4 59 59 W 8 13 29.93 1014 10 16.0934 0 0
3:35 pm 15:35 Cloudy 53 11.7 38 3.5 57 57 NW 7 11 29.92 1013 10 16.0934 0 0
3:55 pm 15:55 Partly Cloudy 50 10.2 41 4.8 69 69 NNE 7 11 29.94 1014 10 16.0934 0 0
4:15 pm 16:15 Sunny 50 10.1 40 4.3 68 68 N 5 7 29.94 1014 10 16.0934 0 0
4:35 pm 16:35 Sunny 49 9.6 38 3.2 65 65 Calm 29.95 1014 10 16.0934 0 0
4:55 pm 16:55 Sunny 49 9.5 37 2.7 63 63 Calm 29.95 1014 10 16.0934 0 0
5:15 pm 17:15 Sunny 48 8.8 37 3 67 67 Calm 29.95 1014 10 16.0934 0 0
5:35 pm 17:35 Sunny 45 7.3 37 2.5 72 72 Calm 29.97 1015 10 16.0934 0 0
5:55 pm 17:55 Clear 44 6.7 37 3 78 78 Calm 29.96 1015 10 16.0934 0 0
6:15 pm 18:15 Clear 43 6.2 37 2.5 77 77 Calm 29.98 1015 10 16.0934 0 0
6:35 pm 18:35 Clear 40 4.4 36 2.1 85 85 Calm 30 1016 10 16.0934 0 0
6:55 pm 18:55 Clear 36 2.3 33 0.6 89 89 Calm 30.02 1017 10 16.0934 0 0
7:15 pm 19:15 Clear 37 3 35 1.7 91 91 Calm 30.03 1017 10 16.0934 0 0
7:35 pm 19:35 Clear 35 1.8 33 0.8 93 93 Calm 30.04 1017 10 16.0934 0 0
7:55 pm 19:55 Clear 35 1.8 34 0.9 94 94 Calm 30.04 1017 10 16.0934 0 0
8:15 pm 20:15 Clear 34 1 33 0.5 97 97 Calm 30.05 1017 10 16.0934 0 0
8:35 pm 20:35 Clear 33 0.6 33 0.3 98 98 Calm 30.05 1018 10 16.0934 0 0
8:55 pm 20:55 Clear 33 0.7 33 0.4 98 98 Calm 30.06 1018 10 16.0934 0 0
9:15 pm 21:15 Clear 33 0.4 32 0.2 99 99 Calm 30.05 1018 10 16.0934 0 0
9:35 pm 21:35 Clear 30 -0.9 30 -1.2 98 98 Calm 30.06 1018 10 16.0934 0 0
9:55 pm 21:55 Clear 32 0 32 0 100 100 Calm 30.05 1018 10 16.0934 0 0
10:15 pm 22:15 Clear 32 0 31 -0.4 97 97 S 5 7 30.05 1018 10 16.0934 0 0
10:35 pm 22:35 Clear 32 0 31 -0.5 96 96 Calm 30.05 1018 10 16.0934 0 0
10:55 pm 22:55 Clear 29 -1.7 28 -2.1 97 97 Calm 30.08 1019 10 16.0934 0 0
11:15 pm 23:15 Clear 31 -0.8 30 -1 99 99 SW 5 7 30.07 1018 10 16.0934 0 0
11:35 pm 23:35 Clear 30 -1.3 29 -1.6 98 98 Calm 30.08 1019 10 16.0934 0 0
11:55 pm 23:55 Clear 30 -1.2 29 -1.6 97 97 Calm 30.08 1018 10 16.0934 0 0

Powered by AerisWeather